| time (UTC) | temp F | wind direction | speed MPH | gust MPH | rain 1hr in | rain 24hr in | rain mn in | humidity % | barometer mb |
| 20260509201557 | 66 | 69 | 2.0 | 9.0 | 0.00 | 0.14 | 0.12 | 62 | 1009.1 |
| 20260509201059 | 67 | 337 | 3.0 | 9.0 | 0.00 | 0.14 | 0.12 | 61 | 1009.2 |
| 20260509200559 | 67 | 233 | 5.0 | 9.0 | 0.00 | 0.14 | 0.12 | 63 | 1009.2 |
| 20260509200059 | 67 | 282 | 2.0 | 9.0 | 0.00 | 0.14 | 0.12 | 63 | 1009.2 |
| 20260509195601 | 66 | 256 | 1.0 | 12.0 | 0.00 | 0.14 | 0.12 | 66 | 1009.2 |
| 20260509195101 | 65 | 226 | 4.0 | 12.0 | 0.00 | 0.14 | 0.12 | 67 | 1009.4 |
| 20260509194601 | 65 | 226 | 4.0 | 12.0 | 0.00 | 0.14 | 0.12 | 66 | 1009.3 |
| 20260509194059 | 65 | 223 | 5.0 | 12.0 | 0.00 | 0.14 | 0.12 | 67 | 1009.4 |
| 20260509193600 | 64 | 231 | 4.0 | 12.0 | 0.00 | 0.14 | 0.12 | 67 | 1009.5 |
| 20260509193100 | 64 | 250 | 4.0 | 12.0 | 0.00 | 0.14 | 0.12 | 68 | 1009.6 |
| 20260509192559 | 64 | 231 | 5.0 | 13.0 | 0.00 | 0.14 | 0.12 | 70 | 1009.5 |
| 20260509192059 | 64 | 222 | 2.0 | 13.0 | 0.00 | 0.14 | 0.12 | 70 | 1009.5 |
| 20260509191559 | 63 | 211 | 3.0 | 12.0 | 0.00 | 0.14 | 0.12 | 70 | 1009.7 |
| 20260509191100 | 63 | 219 | 5.0 | 12.0 | 0.00 | 0.14 | 0.12 | 71 | 1009.8 |
| 20260509190559 | 62 | 243 | 3.0 | 17.0 | 0.00 | 0.14 | 0.12 | 72 | 1009.7 |
| 20260509190057 | 62 | 281 | 5.0 | 17.0 | 0.00 | 0.14 | 0.12 | 72 | 1009.9 |
| 20260509185559 | 62 | 314 | 3.0 | 10.0 | 0.00 | 0.14 | 0.12 | 73 | 1009.9 |
| 20260509185059 | 62 | 324 | 4.0 | 11.0 | 0.00 | 0.14 | 0.12 | 73 | 1009.9 |
| 20260509184601 | 61 | 178 | 4.0 | 12.0 | 0.00 | 0.14 | 0.12 | 73 | 1010.0 |
| 20260509184103 | 61 | 225 | 4.0 | 12.0 | 0.00 | 0.14 | 0.12 | 72 | 1009.9 |
| 20260509183600 | 61 | 226 | 6.0 | 11.0 | 0.00 | 0.14 | 0.12 | 74 | 1009.9 |
| 20260509183104 | 61 | 215 | 6.0 | 11.0 | 0.00 | 0.14 | 0.12 | 74 | 1010.0 |
| 20260509182558 | 60 | 234 | 4.0 | 9.0 | 0.00 | 0.14 | 0.12 | 75 | 1010.1 |
| 20260509182059 | 60 | 258 | 5.0 | 9.0 | 0.00 | 0.14 | 0.12 | 76 | 1010.1 |
| 20260509181611 | 60 | 301 | 3.0 | 7.0 | 0.00 | 0.14 | 0.12 | 77 | 1010.0 |
| 20260509181100 | 60 | 281 | 2.0 | 7.0 | 0.00 | 0.14 | 0.12 | 79 | 1010.2 |
| 20260509180600 | 59 | 228 | 2.0 | 9.0 | 0.00 | 0.14 | 0.12 | 79 | 1010.3 |
| 20260509180115 | 59 | 233 | 3.0 | 9.0 | 0.00 | 0.14 | 0.12 | 77 | 1010.1 |
| 20260509175559 | 59 | 203 | 3.0 | 7.0 | 0.00 | 0.14 | 0.12 | 80 | 1010.1 |
| 20260509175102 | 59 | 238 | 1.0 | 10.0 | 0.00 | 0.14 | 0.12 | 80 | 1010.2 |
| 20260509174558 | 59 | 234 | 2.0 | 10.0 | 0.00 | 0.14 | 0.12 | 79 | 1010.2 |
| 20260509174101 | 59 | 263 | 5.0 | 10.0 | 0.00 | 0.14 | 0.12 | 79 | 1010.3 |
| 20260509173600 | 59 | 248 | 1.0 | 13.0 | 0.00 | 0.14 | 0.12 | 81 | 1010.2 |
| 20260509173111 | 58 | 213 | 2.0 | 13.0 | 0.00 | 0.14 | 0.12 | 81 | 1010.2 |
| 20260509172559 | 58 | 236 | 5.0 | 13.0 | 0.00 | 0.14 | 0.12 | 81 | 1010.3 |
| 20260509172059 | 58 | 271 | 3.0 | 10.0 | 0.00 | 0.14 | 0.12 | 82 | 1010.3 |
| 20260509171600 | 58 | 257 | 3.0 | 10.0 | 0.00 | 0.14 | 0.12 | 81 | 1010.3 |
| 20260509171059 | 59 | 195 | 4.0 | 10.0 | 0.00 | 0.14 | 0.12 | 82 | 1010.3 |
| 20260509170559 | 59 | 257 | 4.0 | 10.0 | 0.00 | 0.14 | 0.12 | 82 | 1010.0 |
| 20260509170546 | 58 | 289 | 5.0 | 12.0 | 0.00 | 0.14 | 0.12 | 81 | 1010.1 |
| 20260509165058 | 58 | 239 | 4.0 | 12.0 | 0.00 | 0.14 | 0.12 | 84 | 1010.1 |
| 20260509164557 | 58 | 212 | 3.0 | 12.0 | 0.00 | 0.14 | 0.12 | 87 | 1010.0 |
| 20260509164059 | 57 | 345 | 3.0 | 9.0 | 0.00 | 0.14 | 0.12 | 87 | 1010.0 |
| 20260509163600 | 57 | 167 | 4.0 | 9.0 | 0.00 | 0.14 | 0.12 | 89 | 1009.9 |
| 20260509163101 | 56 | 246 | 3.0 | 7.0 | 0.00 | 0.14 | 0.12 | 89 | 1009.9 |
| 20260509162559 | 56 | 211 | 2.0 | 7.0 | 0.00 | 0.14 | 0.12 | 91 | 1009.9 |
| 20260509162059 | 55 | 287 | 3.0 | 7.0 | 0.00 | 0.14 | 0.12 | 91 | 1009.9 |
| 20260509161604 | 55 | 221 | 2.0 | 6.0 | 0.01 | 0.14 | 0.12 | 91 | 1009.9 |
| 20260509161059 | 54 | 229 | 2.0 | 7.0 | 0.01 | 0.14 | 0.12 | 92 | 1009.9 |
| 20260509160559 | 54 | 7 | 2.0 | 7.0 | 0.01 | 0.14 | 0.12 | 93 | 1010.0 |
| 20260509160059 | 54 | 222 | 3.0 | 5.0 | 0.01 | 0.14 | 0.12 | 93 | 1010.0 |
| 20260509155558 | 53 | 214 | 1.0 | 5.0 | 0.01 | 0.14 | 0.12 | 93 | 1010.0 |
| 20260509155058 | 53 | 250 | 1.0 | 5.0 | 0.01 | 0.14 | 0.12 | 93 | 1009.9 |
| 20260509154612 | 53 | 211 | 0.0 | 3.0 | 0.01 | 0.14 | 0.12 | 93 | 1009.9 |
| 20260509154059 | 53 | 248 | 0.0 | 3.0 | 0.01 | 0.14 | 0.12 | 94 | 1010.0 |
| 20260509153601 | 53 | 231 | 1.0 | 3.0 | 0.01 | 0.14 | 0.12 | 94 | 1010.1 |
| 20260509153109 | 53 | 215 | 1.0 | 3.0 | 0.02 | 0.14 | 0.12 | 94 | 1009.9 |
| 20260509152600 | 53 | 242 | 1.0 | 4.0 | 0.02 | 0.14 | 0.12 | 93 | 1010.0 |
| 20260509152100 | 53 | 0 | 0.0 | 4.0 | 0.02 | 0.14 | 0.12 | 94 | 1010.0 |
| 20260509151609 | 53 | 318 | 0.0 | 4.0 | 0.02 | 0.13 | 0.11 | 94 | 1009.7 |
| 20260509151059 | 53 | 316 | 1.0 | 4.0 | 0.02 | 0.13 | 0.11 | 93 | 1009.7 |
| 20260509150602 | 52 | 200 | 0.0 | 4.0 | 0.02 | 0.13 | 0.11 | 93 | 1009.7 |
| 20260509150058 | 52 | 220 | 1.0 | 7.0 | 0.02 | 0.13 | 0.11 | 93 | 1009.6 |
| 20260509145559 | 52 | 191 | 2.0 | 7.0 | 0.02 | 0.13 | 0.11 | 93 | 1009.7 |
| 20260509145058 | 52 | 218 | 1.0 | 6.0 | 0.02 | 0.13 | 0.11 | 93 | 1009.8 |
| 20260509144602 | 52 | 233 | 2.0 | 6.0 | 0.02 | 0.13 | 0.11 | 93 | 1009.9 |
| 20260509144059 | 52 | 0 | 2.0 | 6.0 | 0.02 | 0.13 | 0.11 | 93 | 1009.9 |
| 20260509143600 | 52 | 229 | 2.0 | 8.0 | 0.02 | 0.13 | 0.11 | 93 | 1009.9 |
| 20260509143108 | 52 | 224 | 2.0 | 8.0 | 0.01 | 0.12 | 0.10 | 93 | 1009.8 |
| 20260509142558 | 52 | 224 | 3.0 | 6.0 | 0.01 | 0.12 | 0.10 | 93 | 1009.9 |
| 20260509142059 | 52 | 211 | 2.0 | 6.0 | 0.01 | 0.12 | 0.10 | 93 | 1009.9 |
| 20260509141602 | 52 | 227 | 2.0 | 8.0 | 0.00 | 0.11 | 0.09 | 93 | 1009.9 |
| 20260509141059 | 52 | 249 | 3.0 | 8.0 | 0.00 | 0.11 | 0.09 | 93 | 1009.9 |
| 20260509140559 | 52 | 224 | 2.0 | 9.0 | 0.01 | 0.11 | 0.09 | 93 | 1009.9 |
| 20260509135602 | 52 | 240 | 2.0 | 10.0 | 0.01 | 0.11 | 0.09 | 93 | 1010.0 |
| 20260509135059 | 52 | 285 | 2.0 | 10.0 | 0.01 | 0.11 | 0.09 | 93 | 1010.0 |
| 20260509134600 | 52 | 256 | 4.0 | 10.0 | 0.01 | 0.11 | 0.09 | 93 | 1009.9 |
| 20260509134059 | 52 | 238 | 4.0 | 7.0 | 0.01 | 0.11 | 0.09 | 93 | 1010.1 |
| 20260509133559 | 52 | 214 | 2.0 | 5.0 | 0.01 | 0.11 | 0.09 | 93 | 1010.1 |
| 20260509133109 | 52 | 240 | 1.0 | 4.0 | 0.01 | 0.11 | 0.09 | 94 | 1010.1 |
| 20260509132559 | 52 | 245 | 2.0 | 4.0 | 0.01 | 0.11 | 0.09 | 93 | 1010.1 |
| 20260509132058 | 52 | 218 | 2.0 | 5.0 | 0.01 | 0.11 | 0.09 | 93 | 1010.2 |
| 20260509131559 | 52 | 222 | 2.0 | 10.0 | 0.02 | 0.11 | 0.09 | 93 | 1010.1 |
| 20260509131058 | 52 | 243 | 2.0 | 10.0 | 0.02 | 0.11 | 0.09 | 93 | 1010.2 |
| 20260509130601 | 51 | 248 | 1.0 | 6.0 | 0.02 | 0.10 | 0.08 | 93 | 1010.2 |
| 20260509130115 | 51 | 224 | 1.0 | 4.0 | 0.02 | 0.10 | 0.08 | 93 | 1010.3 |
| 20260509125601 | 51 | 228 | 0.0 | 4.0 | 0.02 | 0.10 | 0.08 | 93 | 1010.3 |
| 20260509125058 | 51 | 165 | 1.0 | 4.0 | 0.03 | 0.10 | 0.08 | 93 | 1010.3 |
| 20260509124600 | 51 | 219 | 1.0 | 4.0 | 0.03 | 0.10 | 0.08 | 93 | 1010.2 |
| 20260509124059 | 51 | 216 | 1.0 | 4.0 | 0.03 | 0.10 | 0.08 | 93 | 1010.3 |
| 20260509123601 | 51 | 210 | 2.0 | 5.0 | 0.03 | 0.10 | 0.08 | 93 | 1010.3 |
| 20260509123100 | 51 | 217 | 2.0 | 7.0 | 0.04 | 0.10 | 0.08 | 93 | 1010.3 |
| 20260509122600 | 51 | 237 | 2.0 | 7.0 | 0.04 | 0.10 | 0.08 | 93 | 1010.4 |
| 20260509122059 | 51 | 236 | 2.0 | 4.0 | 0.04 | 0.10 | 0.08 | 93 | 1010.4 |
| 20260509121558 | 51 | 258 | 2.0 | 4.0 | 0.03 | 0.09 | 0.07 | 93 | 1010.4 |
| 20260509121100 | 51 | 239 | 2.0 | 4.0 | 0.04 | 0.09 | 0.07 | 93 | 1010.3 |
| 20260509120559 | 51 | 233 | 1.0 | 7.0 | 0.04 | 0.08 | 0.06 | 93 | 1010.4 |
| 20260509120101 | 51 | 215 | 1.0 | 7.0 | 0.04 | 0.08 | 0.06 | 93 | 1010.4 |
| 20260509115600 | 51 | 223 | 2.0 | 7.0 | 0.04 | 0.08 | 0.06 | 92 | 1010.4 |
| 20260509115058 | 51 | 233 | 2.0 | 4.0 | 0.03 | 0.07 | 0.05 | 92 | 1010.4 |
| 20260509114601 | 51 | 176 | 1.0 | 4.0 | 0.03 | 0.07 | 0.05 | 92 | 1010.4 |
| 20260509114101 | 51 | 229 | 1.0 | 5.0 | 0.03 | 0.07 | 0.05 | 92 | 1010.2 |
| 20260509113602 | 51 | 257 | 2.0 | 5.0 | 0.03 | 0.07 | 0.05 | 92 | 1010.3 |
| 20260509113101 | 51 | 266 | 2.0 | 5.0 | 0.02 | 0.06 | 0.04 | 92 | 1010.2 |
| 20260509112559 | 51 | 214 | 2.0 | 6.0 | 0.02 | 0.06 | 0.04 | 91 | 1010.2 |
| 20260509112059 | 51 | 214 | 2.0 | 6.0 | 0.02 | 0.06 | 0.04 | 91 | 1010.1 |
| 20260509111610 | 51 | 210 | 2.0 | 11.0 | 0.02 | 0.06 | 0.04 | 91 | 1010.1 |
| 20260509111059 | 51 | 235 | 3.0 | 11.0 | 0.01 | 0.05 | 0.03 | 90 | 1010.1 |
| 20260509110559 | 51 | 243 | 3.0 | 11.0 | 0.00 | 0.04 | 0.02 | 89 | 1010.1 |
| 20260509110101 | 52 | 243 | 3.0 | 8.0 | 0.00 | 0.04 | 0.02 | 89 | 1010.0 |
| 20260509105600 | 52 | 124 | 4.0 | 10.0 | 0.00 | 0.04 | 0.02 | 89 | 1010.0 |
| 20260509105059 | 52 | 228 | 4.0 | 10.0 | 0.01 | 0.04 | 0.02 | 88 | 1010.0 |
| 20260509104610 | 52 | 229 | 4.0 | 11.0 | 0.01 | 0.04 | 0.02 | 88 | 1010.1 |
| 20260509104108 | 52 | 223 | 5.0 | 11.0 | 0.01 | 0.04 | 0.02 | 88 | 1010.0 |
| 20260509103558 | 52 | 292 | 3.0 | 11.0 | 0.01 | 0.04 | 0.02 | 88 | 1010.0 |
| 20260509103111 | 51 | 255 | 3.0 | 11.0 | 0.01 | 0.04 | 0.02 | 89 | 1009.9 |
| 20260509102559 | 51 | 230 | 3.0 | 10.0 | 0.01 | 0.04 | 0.02 | 88 | 1010.0 |
| 20260509102059 | 51 | 226 | 3.0 | 11.0 | 0.01 | 0.04 | 0.02 | 89 | 1010.0 |
| 20260509101559 | 51 | 250 | 4.0 | 11.0 | 0.01 | 0.04 | 0.02 | 88 | 1010.1 |
| 20260509101058 | 51 | 251 | 4.0 | 11.0 | 0.01 | 0.04 | 0.02 | 88 | 1010.1 |
| 20260509100559 | 51 | 188 | 3.0 | 8.0 | 0.01 | 0.04 | 0.02 | 88 | 1010.0 |
| 20260509100059 | 51 | 198 | 2.0 | 8.0 | 0.01 | 0.04 | 0.02 | 88 | 1010.1 |
| 20260509095559 | 51 | 228 | 3.0 | 8.0 | 0.01 | 0.04 | 0.02 | 88 | 1010.0 |
| 20260509095059 | 52 | 183 | 3.0 | 7.0 | 0.01 | 0.03 | 0.01 | 88 | 1010.0 |
| 20260509094600 | 51 | 245 | 1.0 | 6.0 | 0.01 | 0.03 | 0.01 | 88 | 1010.1 |
| 20260509094059 | 52 | 250 | 2.0 | 6.0 | 0.01 | 0.03 | 0.01 | 88 | 1010.2 |
| 20260509093559 | 52 | 233 | 2.0 | 5.0 | 0.01 | 0.03 | 0.01 | 88 | 1010.1 |
| 20260509093102 | 52 | 217 | 2.0 | 7.0 | 0.01 | 0.03 | 0.01 | 87 | 1010.1 |
| 20260509092558 | 52 | 234 | 2.0 | 7.0 | 0.01 | 0.03 | 0.01 | 87 | 1010.1 |
| 20260509092058 | 51 | 186 | 2.0 | 4.0 | 0.01 | 0.03 | 0.01 | 87 | 1010.3 |
| 20260509091601 | 51 | 226 | 1.0 | 4.0 | 0.01 | 0.03 | 0.01 | 88 | 1010.3 |
| 20260509091059 | 51 | 221 | 1.0 | 4.0 | 0.01 | 0.03 | 0.01 | 88 | 1010.3 |
| 20260509090559 | 51 | 165 | 0.0 | 3.0 | 0.01 | 0.03 | 0.01 | 89 | 1010.3 |
| 20260509090107 | 51 | 211 | 1.0 | 4.0 | 0.01 | 0.03 | 0.01 | 89 | 1010.3 |
| 20260509085558 | 51 | 231 | 1.0 | 4.0 | 0.01 | 0.03 | 0.01 | 91 | 1010.4 |
| 20260509085058 | 50 | 212 | 1.0 | 2.0 | 0.00 | 0.02 | 0.00 | 92 | 1010.4 |
| 20260509084609 | 50 | 0 | 0.0 | 2.0 | 0.00 | 0.02 | 0.00 | 93 | 1010.4 |
| 20260509084058 | 50 | 241 | 0.0 | 1.0 | 0.00 | 0.02 | 0.00 | 94 | 1010.4 |
| 20260509083559 | 50 | 166 | 0.0 | 1.0 | 0.00 | 0.02 | 0.00 | 94 | 1010.4 |
| 20260509083108 | 50 | 0 | 0.0 | 0.0 | 0.00 | 0.02 | 0.00 | 94 | 1010.4 |
| 20260509082559 | 50 | 0 | 0.0 | 0.0 | 0.00 | 0.02 | 0.00 | 94 | 1010.4 |
| 20260509082059 | 50 | 0 | 0.0 | 0.0 | 0.00 | 0.02 | 0.00 | 94 | 1010.5 |
| 20260509081605 | 50 | 0 | 0.0 | 0.0 | 0.00 | 0.02 | 0.00 | 94 | 1010.4 |
| 20260509081059 | 50 | 0 | 0.0 | 0.0 | 0.00 | 0.02 | 0.00 | 94 | 1010.4 |
| 20260509080558 | 49 | 0 | 0.0 | 0.0 | 0.00 | 0.02 | 0.00 | 94 | 1010.4 |
| 20260509075558 | 49 | 0 | 0.0 | 0.0 | 0.00 | 0.02 | 0.00 | 94 | 1010.1 |
| 20260509075058 | 49 | 0 | 0.0 | 0.0 | 0.00 | 0.02 | 0.00 | 94 | 1010.1 |
| 20260509074604 | 49 | 0 | 0.0 | 0.0 | 0.00 | 0.02 | 0.00 | 94 | 1010.2 |
| 20260509074058 | 49 | 0 | 0.0 | 0.0 | 0.00 | 0.02 | 0.00 | 94 | 1010.3 |
| 20260509073558 | 49 | 0 | 0.0 | 0.0 | 0.00 | 0.02 | 0.00 | 94 | 1010.3 |
| 20260509073101 | 49 | 0 | 0.0 | 0.0 | 0.00 | 0.02 | 0.00 | 94 | 1010.2 |
| 20260509072559 | 49 | 0 | 0.0 | 0.0 | 0.00 | 0.02 | 0.00 | 94 | 1010.2 |
| 20260509072058 | 49 | 0 | 0.0 | 0.0 | 0.00 | 0.02 | 0.00 | 93 | 1010.0 |
| 20260509071602 | 49 | 0 | 0.0 | 0.0 | 0.00 | 0.02 | 0.00 | 94 | 1009.9 |
| 20260509071059 | 49 | 0 | 0.0 | 0.0 | 0.00 | 0.02 | 0.00 | 94 | 1009.7 |
| 20260509070559 | 49 | 0 | 0.0 | 0.0 | 0.00 | 0.02 | 0.00 | 93 | 1009.8 |
| 20260509070106 | 49 | 0 | 0.0 | 0.0 | 0.00 | 0.02 | 0.00 | 93 | 1009.9 |
| 20260509065600 | 50 | 0 | 0.0 | 0.0 | 0.00 | 0.02 | 0.00 | 94 | 1009.8 |
| 20260509065058 | 50 | 0 | 0.0 | 0.0 | 0.00 | 0.02 | 0.00 | 94 | 1009.9 |
| 20260509064603 | 50 | 0 | 0.0 | 0.0 | 0.00 | 0.02 | 0.00 | 94 | 1010.0 |
| 20260509064102 | 50 | 0 | 0.0 | 0.0 | 0.00 | 0.02 | 0.00 | 94 | 1010.1 |
| 20260509063601 | 50 | 0 | 0.0 | 0.0 | 0.00 | 0.02 | 0.00 | 94 | 1010.1 |
| 20260509063112 | 50 | 0 | 0.0 | 0.0 | 0.00 | 0.02 | 0.00 | 94 | 1010.3 |
| 20260509062558 | 50 | 0 | 0.0 | 0.0 | 0.00 | 0.02 | 0.00 | 95 | 1010.3 |
| 20260509062058 | 50 | 0 | 0.0 | 0.0 | 0.00 | 0.02 | 0.00 | 95 | 1010.5 |
| 20260509061619 | 50 | 0 | 0.0 | 0.0 | 0.00 | 0.02 | 0.00 | 95 | 1010.6 |
| 20260509061058 | 50 | 0 | 0.0 | 0.0 | 0.00 | 0.02 | 0.00 | 95 | 1010.7 |
| 20260509060559 | 50 | 0 | 0.0 | 0.0 | 0.00 | 0.02 | 0.00 | 95 | 1010.7 |
| 20260509060113 | 50 | 0 | 0.0 | 0.0 | 0.00 | 0.02 | 0.00 | 95 | 1010.8 |
| 20260509055558 | 50 | 0 | 0.0 | 0.0 | 0.00 | 0.02 | 0.00 | 94 | 1010.7 |
| 20260509055058 | 50 | 0 | 0.0 | 0.0 | 0.00 | 0.02 | 0.00 | 94 | 1010.8 |
| 20260509054600 | 50 | 0 | 0.0 | 0.0 | 0.00 | 0.02 | 0.00 | 95 | 1010.7 |
| 20260509054058 | 50 | 0 | 0.0 | 0.0 | 0.00 | 0.02 | 0.00 | 94 | 1010.8 |
| 20260509053600 | 50 | 0 | 0.0 | 0.0 | 0.00 | 0.02 | 0.00 | 94 | 1010.9 |
| 20260509053059 | 50 | 0 | 0.0 | 0.0 | 0.00 | 0.02 | 0.00 | 94 | 1011.0 |
| 20260509052559 | 50 | 0 | 0.0 | 0.0 | 0.00 | 0.02 | 0.00 | 94 | 1011.1 |
| 20260509052101 | 50 | 0 | 0.0 | 0.0 | 0.00 | 0.02 | 0.00 | 94 | 1011.2 |
| 20260509051602 | 50 | 0 | 0.0 | 0.0 | 0.00 | 0.02 | 0.00 | 94 | 1011.3 |
| 20260509051058 | 50 | 0 | 0.0 | 0.0 | 0.00 | 0.02 | 0.00 | 94 | 1011.2 |
| 20260509050558 | 50 | 0 | 0.0 | 0.0 | 0.00 | 0.02 | 0.00 | 94 | 1011.2 |
| 20260509050101 | 50 | 0 | 0.0 | 0.0 | 0.00 | 0.02 | 0.00 | 94 | 1011.2 |
| 20260509045600 | 50 | 0 | 0.0 | 0.0 | 0.00 | 0.02 | 0.00 | 94 | 1011.2 |
| 20260509045100 | 50 | 0 | 0.0 | 0.0 | 0.00 | 0.02 | 0.00 | 94 | 1011.2 |
| 20260509044601 | 50 | 0 | 0.0 | 0.0 | 0.00 | 0.02 | 0.00 | 93 | 1011.2 |
| 20260509044100 | 50 | 0 | 0.0 | 0.0 | 0.00 | 0.02 | 0.00 | 93 | 1011.2 |
| 20260509043559 | 50 | 0 | 0.0 | 0.0 | 0.00 | 0.02 | 0.00 | 93 | 1011.3 |
| 20260509043100 | 50 | 0 | 0.0 | 0.0 | 0.00 | 0.02 | 0.00 | 93 | 1011.4 |
| 20260509042558 | 50 | 0 | 0.0 | 0.0 | 0.00 | 0.02 | 0.00 | 93 | 1011.4 |
| 20260509042102 | 50 | 0 | 0.0 | 0.0 | 0.00 | 0.02 | 0.00 | 93 | 1011.4 |
| 20260509041601 | 50 | 0 | 0.0 | 0.0 | 0.00 | 0.02 | 0.00 | 93 | 1011.5 |
| 20260509041059 | 50 | 0 | 0.0 | 0.0 | 0.00 | 0.02 | 0.00 | 93 | 1011.5 |
| 20260509040558 | 50 | 0 | 0.0 | 0.0 | 0.00 | 0.02 | 0.00 | 92 | 1011.7 |
| 20260509035559 | 50 | 0 | 0.0 | 0.0 | 0.00 | 0.02 | 0.02 | 92 | 1011.8 |
| 20260509035059 | 50 | 0 | 0.0 | 0.0 | 0.00 | 0.02 | 0.02 | 92 | 1012.0 |
| 20260509034602 | 50 | 0 | 0.0 | 0.0 | 0.00 | 0.02 | 0.02 | 92 | 1012.1 |
| 20260509034058 | 51 | 0 | 0.0 | 0.0 | 0.00 | 0.02 | 0.02 | 92 | 1012.1 |
| 20260509033559 | 51 | 0 | 0.0 | 0.0 | 0.01 | 0.02 | 0.02 | 91 | 1012.3 |
| 20260509033058 | 51 | 0 | 0.0 | 0.0 | 0.01 | 0.02 | 0.02 | 91 | 1012.4 |
| 20260509032559 | 51 | 0 | 0.0 | 0.0 | 0.01 | 0.02 | 0.02 | 91 | 1012.5 |
| 20260509032059 | 51 | 0 | 0.0 | 0.0 | 0.01 | 0.02 | 0.02 | 91 | 1012.6 |
| 20260509031601 | 51 | 0 | 0.0 | 0.0 | 0.01 | 0.02 | 0.02 | 91 | 1012.6 |
| 20260509031100 | 51 | 0 | 0.0 | 0.0 | 0.01 | 0.02 | 0.02 | 91 | 1012.7 |
| 20260509030600 | 51 | 0 | 0.0 | 0.0 | 0.01 | 0.02 | 0.02 | 91 | 1012.8 |
| 20260509030100 | 51 | 0 | 0.0 | 0.0 | 0.01 | 0.02 | 0.02 | 90 | 1012.9 |
| 20260509025558 | 51 | 0 | 0.0 | 0.0 | 0.02 | 0.02 | 0.02 | 90 | 1013.0 |
| 20260509025102 | 51 | 0 | 0.0 | 0.0 | 0.02 | 0.02 | 0.02 | 90 | 1013.0 |
| 20260509024603 | 51 | 0 | 0.0 | 0.0 | 0.02 | 0.02 | 0.02 | 90 | 1013.1 |
| 20260509024058 | 51 | 0 | 0.0 | 0.0 | 0.02 | 0.02 | 0.02 | 90 | 1013.1 |
| 20260509023559 | 51 | 0 | 0.0 | 0.0 | 0.01 | 0.01 | 0.01 | 89 | 1013.1 |
| 20260509023103 | 52 | 0 | 0.0 | 0.0 | 0.01 | 0.01 | 0.01 | 88 | 1013.2 |
| 20260509022559 | 52 | 0 | 0.0 | 0.0 | 0.01 | 0.01 | 0.01 | 87 | 1013.2 |
| 20260509022058 | 52 | 0 | 0.0 | 0.0 | 0.01 | 0.01 | 0.01 | 87 | 1013.3 |
| 20260509021600 | 52 | 0 | 0.0 | 0.0 | 0.01 | 0.01 | 0.01 | 86 | 1013.2 |
| 20260509021057 | 52 | 0 | 0.0 | 0.0 | 0.01 | 0.01 | 0.01 | 86 | 1012.9 |
| 20260509020558 | 52 | 0 | 0.0 | 0.0 | 0.01 | 0.01 | 0.01 | 84 | 1012.9 |
| 20260509015600 | 53 | 0 | 0.0 | 0.0 | 0.00 | 0.00 | 0.00 | 84 | 1012.8 |
| 20260509015101 | 53 | 0 | 0.0 | 0.0 | 0.00 | 0.00 | 0.00 | 83 | 1012.6 |
| 20260509014559 | 53 | 0 | 0.0 | 0.0 | 0.00 | 0.00 | 0.00 | 82 | 1012.6 |
| 20260509014101 | 53 | 0 | 0.0 | 0.0 | 0.00 | 0.00 | 0.00 | 81 | 1012.5 |
| 20260509013558 | 53 | 0 | 0.0 | 0.0 | 0.00 | 0.00 | 0.00 | 82 | 1012.3 |
| 20260509013101 | 53 | 0 | 0.0 | 0.0 | 0.00 | 0.00 | 0.00 | 80 | 1012.3 |
| 20260509012559 | 53 | 0 | 0.0 | 0.0 | 0.00 | 0.00 | 0.00 | 80 | 1012.1 |
| 20260509012059 | 53 | 0 | 0.0 | 0.0 | 0.00 | 0.00 | 0.00 | 80 | 1012.0 |
| 20260509011559 | 53 | 0 | 0.0 | 0.0 | 0.00 | 0.00 | 0.00 | 80 | 1011.9 |
| 20260509011059 | 53 | 0 | 0.0 | 0.0 | 0.00 | 0.00 | 0.00 | 79 | 1011.8 |
| 20260509010558 | 54 | 0 | 0.0 | 0.0 | 0.00 | 0.00 | 0.00 | 79 | 1011.7 |
| 20260509010059 | 54 | 0 | 0.0 | 0.0 | 0.00 | 0.00 | 0.00 | 78 | 1011.6 |
| 20260509005559 | 54 | 0 | 0.0 | 0.0 | 0.00 | 0.00 | 0.00 | 77 | 1011.5 |
| 20260509005058 | 54 | 0 | 0.0 | 0.0 | 0.00 | 0.00 | 0.00 | 76 | 1011.4 |
| 20260509004608 | 54 | 0 | 0.0 | 0.0 | 0.00 | 0.00 | 0.00 | 76 | 1011.4 |
| 20260509004058 | 54 | 0 | 0.0 | 0.0 | 0.00 | 0.00 | 0.00 | 74 | 1011.3 |
| 20260509003602 | 54 | 0 | 0.0 | 0.0 | 0.00 | 0.00 | 0.00 | 75 | 1011.3 |
| 20260509003059 | 54 | 0 | 0.0 | 0.0 | 0.00 | 0.00 | 0.00 | 74 | 1011.3 |
| 20260509002559 | 55 | 0 | 0.0 | 0.0 | 0.00 | 0.00 | 0.00 | 74 | 1011.3 |
| 20260509002058 | 55 | 0 | 0.0 | 0.0 | 0.00 | 0.00 | 0.00 | 74 | 1011.3 |
| 20260509001559 | 55 | 0 | 0.0 | 0.0 | 0.00 | 0.00 | 0.00 | 73 | 1011.3 |
| 20260509001058 | 55 | 0 | 0.0 | 0.0 | 0.00 | 0.00 | 0.00 | 73 | 1011.4 |
| 20260509000558 | 55 | 0 | 0.0 | 0.0 | 0.00 | 0.00 | 0.00 | 72 | 1011.2 |
| 20260509000057 | 55 | 0 | 0.0 | 0.0 | 0.00 | 0.00 | 0.00 | 72 | 1011.1 |
| 20260508235559 | 56 | 0 | 0.0 | 0.0 | 0.00 | 0.00 | 0.00 | 72 | 1011.1 |
| 20260508235057 | 56 | 0 | 0.0 | 0.0 | 0.00 | 0.00 | 0.00 | 71 | 1011.1 |
| 20260508234559 | 56 | 0 | 0.0 | 0.0 | 0.00 | 0.00 | 0.00 | 71 | 1011.4 |
| 20260508234057 | 56 | 0 | 0.0 | 0.0 | 0.00 | 0.00 | 0.00 | 71 | 1011.5 |
| 20260508233558 | 56 | 0 | 0.0 | 0.0 | 0.00 | 0.00 | 0.00 | 70 | 1011.5 |
| 20260508233100 | 56 | 0 | 0.0 | 0.0 | 0.00 | 0.00 | 0.00 | 70 | 1011.4 |
| 20260508232559 | 56 | 0 | 0.0 | 0.0 | 0.00 | 0.00 | 0.00 | 71 | 1011.5 |
| 20260508232058 | 56 | 0 | 0.0 | 0.0 | 0.00 | 0.00 | 0.00 | 70 | 1011.5 |
| 20260508231605 | 56 | 0 | 0.0 | 0.0 | 0.00 | 0.00 | 0.00 | 69 | 1011.3 |
| 20260508231059 | 57 | 0 | 0.0 | 0.0 | 0.00 | 0.00 | 0.00 | 68 | 1011.6 |
| 20260508230600 | 57 | 0 | 0.0 | 0.0 | 0.00 | 0.00 | 0.00 | 67 | 1011.6 |
| 20260508230100 | 57 | 0 | 0.0 | 0.0 | 0.00 | 0.00 | 0.00 | 66 | 1011.7 |
| 20260508225558 | 57 | 0 | 0.0 | 0.0 | 0.00 | 0.00 | 0.00 | 65 | 1011.7 |
| 20260508225058 | 57 | 0 | 0.0 | 0.0 | 0.00 | 0.00 | 0.00 | 65 | 1011.6 |
| 20260508224605 | 57 | 0 | 0.0 | 0.0 | 0.00 | 0.00 | 0.00 | 65 | 1011.6 |
| 20260508224058 | 57 | 0 | 0.0 | 1.0 | 0.00 | 0.00 | 0.00 | 65 | 1011.7 |
| 20260508223558 | 57 | 0 | 0.0 | 2.0 | 0.00 | 0.00 | 0.00 | 66 | 1011.7 |
| 20260508223058 | 57 | 0 | 1.0 | 2.0 | 0.00 | 0.00 | 0.00 | 65 | 1011.7 |
| 20260508222557 | 57 | 231 | 0.0 | 2.0 | 0.00 | 0.00 | 0.00 | 64 | 1011.6 |
| 20260508222057 | 57 | 0 | 0.0 | 1.0 | 0.00 | 0.00 | 0.00 | 65 | 1011.6 |
| 20260508221614 | 57 | 0 | 0.0 | 1.0 | 0.00 | 0.00 | 0.00 | 63 | 1011.6 |
| 20260508221058 | 57 | 0 | 0.0 | 1.0 | 0.00 | 0.00 | 0.00 | 64 | 1011.6 |
| 20260508220558 | 58 | 0 | 0.0 | 1.0 | 0.00 | 0.00 | 0.00 | 62 | 1011.6 |
| 20260508215557 | 57 | 226 | 0.0 | 2.0 | 0.00 | 0.00 | 0.00 | 61 | 1011.6 |
| 20260508215058 | 58 | 0 | 0.0 | 2.0 | 0.00 | 0.00 | 0.00 | 62 | 1011.7 |
| 20260508214601 | 58 | 63 | 0.0 | 2.0 | 0.00 | 0.00 | 0.00 | 62 | 1011.7 |
| 20260508214058 | 58 | 226 | 0.0 | 2.0 | 0.00 | 0.00 | 0.00 | 63 | 1011.7 |
| 20260508213558 | 58 | 237 | 0.0 | 2.0 | 0.00 | 0.00 | 0.00 | 61 | 1011.8 |
| 20260508213101 | 58 | 238 | 1.0 | 3.0 | 0.00 | 0.00 | 0.00 | 61 | 1011.8 |
| 20260508212558 | 58 | 6 | 1.0 | 4.0 | 0.00 | 0.00 | 0.00 | 61 | 1011.9 |
| 20260508212057 | 58 | 211 | 1.0 | 6.0 | 0.00 | 0.00 | 0.00 | 61 | 1011.9 |
| 20260508211600 | 58 | 226 | 3.0 | 6.0 | 0.00 | 0.00 | 0.00 | 61 | 1012.0 |
| 20260508211057 | 58 | 216 | 2.0 | 6.0 | 0.00 | 0.00 | 0.00 | 62 | 1012.0 |
| 20260508210558 | 57 | 212 | 2.0 | 6.0 | 0.00 | 0.00 | 0.00 | 64 | 1012.0 |
| 20260508210101 | 57 | 233 | 2.0 | 5.0 | 0.00 | 0.00 | 0.00 | 64 | 1012.1 |
| 20260508205601 | 57 | 250 | 1.0 | 5.0 | 0.00 | 0.00 | 0.00 | 65 | 1012.2 |
| 20260508205059 | 57 | 210 | 2.0 | 3.0 | 0.00 | 0.00 | 0.00 | 67 | 1012.2 |
| 20260508204557 | 56 | 214 | 1.0 | 3.0 | 0.00 | 0.00 | 0.00 | 67 | 1012.2 |
| 20260508204058 | 56 | 212 | 1.0 | 3.0 | 0.00 | 0.00 | 0.00 | 67 | 1012.3 |
| 20260508203558 | 56 | 230 | 1.0 | 3.0 | 0.00 | 0.00 | 0.00 | 66 | 1012.4 |
| 20260508203106 | 56 | 271 | 0.0 | 1.0 | 0.00 | 0.00 | 0.00 | 67 | 1012.4 |
| 20260508202558 | 56 | 0 | 0.0 | 3.0 | 0.00 | 0.00 | 0.00 | 67 | 1012.5 |
| 20260508202058 | 56 | 232 | 0.0 | 3.0 | 0.00 | 0.00 | 0.00 | 68 | 1012.5 |